Regional Weather Roundup
Issued by NWS Green Bay, WI

Home | Current Version | Previous Version | Text Only | Print | Product List | Glossary On
Versions: 1 2 3 4 5 6 7 8 9 10 11 12 13 14 15 16 17 18 19 20 21 22 23 24 25 26 27 28 29 30 31 32 33 34 35 36 37 38 39 40 41 42 43 44 45 46 47 48 49 50
000
ASUS43 KGRB 282359
RWRGRB

NORTH-CENTRAL AND NORTHEAST WISCONSIN REGIONAL WEATHER ROUNDUP
NATIONAL WEATHER SERVICE GREEN BAY WI
700 PM CDT SAT MAR 28 2015

WIZ005-009-010>012-018-019-290100-
NORTH CENTRAL WISCONSIN

CITY           SKY/WX    TMP DP  RH WIND       PRES   REMARKS
IRONWOOD       PTCLDY    39  10  30 S10G21    30.01F
MANITOWISH WTR NOT AVBL
ARBOR VITAE    NOT AVBL
EAGLE RIVER    NOT AVBL
LAND O LAKES   NOT AVBL
RHINELANDER    CLEAR     35  10  35 SW10      30.09F
PHILLIPS       NOT AVBL
ANTIGO         NOT AVBL
TOMAHAWK       NOT AVBL
MERRILL        NOT AVBL
$$

WIZ013-073-290100-
NORTHEAST WISCONSIN

CITY           SKY/WX    TMP DP  RH WIND       PRES   REMARKS
IRON MOUNTAIN  CLEAR     37   9  31 S10       30.10S
MARINETTE      CLEAR     34  16  47 SW12      30.18S
$$

WIZ017-030-035>037-045-290100-
CENTRAL WISCONSIN

CITY           SKY/WX    TMP DP  RH WIND       PRES   REMARKS
MEDFORD        NOT AVBL
WAUSAU         CLEAR     37   9  31 SW13      30.11F
MOSINEE        NOT AVBL
MARSHFIELD     CLEAR     37  11  34 S13       30.13F
WISC RAPIDS    CLEAR     38   7  27 S12       30.17F
STEVENS POINT  NOT AVBL
WAUPACA        NOT AVBL
SHAWANO        NOT AVBL
CLINTONVILLE   NOT AVBL
$$

WIZ038-039-048-051-290100-
FOX VALLEY

CITY           SKY/WX    TMP DP  RH WIND       PRES   REMARKS
NWS GREEN BAY  CLEAR     36  17  46 S8        30.20F
APPLETON       CLEAR     37  10  32 S9        30.20F
OSHKOSH        CLEAR     36  14  40 SW9       30.20F
FOND DU LAC    CLEAR     36  12  37 SW8       30.21F
$$

WIZ022-050-052-290100-
EAST CENTRAL WISCONSIN

CITY           SKY/WX    TMP DP  RH WIND       PRES   REMARKS
STURGEON BAY   CLEAR     28  21  74 S10       30.22F
MANITOWOC      NOT AVBL
SHEBOYGAN      CLEAR     29  18  63 S12G17    30.24F
$$

LMZ563-521-522-541>543-290100-
LAKESHORE

STATION/POSITION TIME  TEMP    WIND        PRES    VSBY  WAVE
                       AIR SEA DIR/SP/G                  HT/PER
                 (UTC) (F)     (DEG/KT/KT) (MB)    (MI)  (FT/S)
SHEBOYGAN LKSHOR 2300   30     170/ 17/ 19 1025.8F
KEWAUNEE LKSHORE 2300   31     180/ 18/ 21 1023.0F
NORTHPORT PIER   2300   29     160/  6/ 12 1023.0F
CHAMBERS ISLAND  2300   34     150/  6/ 11 1023.0S
MENOMINEE LKSHOR 2300   32     150/ 13     1022.6F
$$


USA.gov is the U.S. government's official web portal to all federal, state and local government web resources and services.